NOAA 16 DEB, 41279

Orbit data source: Space-Track

NOAA 16 DEB, 41279 is space debris in SSO originally from a launch on Thu, 21 Sep 2000 UTC launched from the Air Force Western Test Range (AFWTR). Debris objects in space refer to the collection of defunct objects orbiting the Earth. Examples of debris include non-operational satellites, rocket bodies, and fragments generated from explosions, collisions, or faulty payload assembly.

Loading next visibility...
Identifier
41279, 2000-055GF
Orbit
SSO
Country
Flag of USUS
Related business
Manufacturer
Unknown
Mission
Spacecraft
Bus & Motor
Unknown
Mass
Unknown
Launch date (UTC)
2000-09-21 (25 years ago)
Launch vehicle
Unknown
Launch site
Air Force Western Test Range (AFWTR)
Object type
Payload
Rocket body
Debris
Shape & HBR
Unknown shape, 0.1 m
Radar Cross Section
Small (<0.1 m²)

Expand to show TLE details & history
Last TLE update: 5 days ago

TLE from 5 days ago
0 NOAA 16 DEB
1 41279U 00055GF  26031.09894076  .00002762  00000-0  13976-2 0  9993
2 41279  98.7589  92.7154 0029948 303.4977  56.3336 14.16716621519358
Epoch: 2026-01-31T02:22Z
TLE epoch observation values (Epoch: 2026-01-31T02:22:28.481Z)
Latitude
-0.00009°
Longitude
-73.23106°
Altitude
827.452 km
Speed
7.445 km/s
True Right ascension
06h 10m 51s
True Declination
0° 00' 00"
Sunlit
Object was in full shadow at epoch
Visualization orbit readout
Latitude
Unknown
Longitude
Unknown
Altitude
Unknown
Speed
Unknown
Apparent Right ascension
Unknown
Apparent Declination
Unknown
Sunlit
N/A
Visualization observer readout
Local Sidereal Time
17:47:09
Azimuth
Unknown
Elevation
Unknown
Doppler factor
Unknown
Orbital elements
Apogee altitude
855.242 km
Perigee altitude
812.046 km
Semi-major axis
7,211.781 km
Eccentricity
0.00299
Inclination
98.7589°
RAAN
92.7154°
Arg. of periapsis
303.4977°
True anomaly
56.61981°
Mean anomaly
56.3336°
Eccentric anomaly
56.47665°
Mean motion
3.54388 °/min
Orbital period
101.58 mins
BSTAR
0.0013976
Loading maneuver chart data...
Computing Atmospheric mass density...

Documentation

Showing up to 5 results
|